Hallock, MN

11:42 PM CDT on March 28, 2017 (GMT -0500)
Hallock Municipal

Weather History for KHCO - March, 2014

Change the Weather History Date:

Saturday, March 22, 2014

  Actual Average Record
Temperature  
Mean Temperature 5 °F -  
Max Temperature 12 °F 35 °F 71 °F (2012)
Min Temperature -2 °F 17 °F -23 °F (1940)
Degree Days  
Heating Degree Days 60    
Moisture  
Dew Point -5 °F    
Average Humidity 66    
Maximum Humidity 78    
Minimum Humidity 57    
Precipitation  
Precipitation 0.00 in - - ()
Sea Level Pressure  
Sea Level Pressure 30.49 in    
Wind  
Wind Speed 9 mph (NNW)    
Max Wind Speed 16 mph    
Max Gust Speed 23 mph    
Visibility 10 miles    
Events      
Averages and records for this station are not official NWS values.
T = Trace of Precipitation, MM = Missing Value Source: NWS Daily Summary

Daily Weather History Graph

Daily Weather History Graph

Search for Another Location

Airport or City:

Trip Planner

Search our weather history database for the weather conditions in past years. The results will help you decide how hot, cold, wet, or windy it might be!

Date:

Astronomy

Mar. 22, 2014 Rise Set
Actual Time 7:26 AM CDT 7:43 PM CDT
Civil Twilight 6:54 AM CDT 8:15 PM CDT
Nautical Twilight 6:17 AM CDT 8:52 PM CDT
Astronomical Twilight 5:39 AM CDT 9:31 PM CDT
Moon 1:27 AM CDT (3/22) 10:46 AM CDT (3/22)
Length of Visible Light 13h 20m
Length of Day
12h 17m
Waning Gibbous, 65% of the Moon is Illuminated
Mar 22
Waning Gibbous
Mar 23
Last Quarter
Mar 30
New
Apr 7
First Quarter
Apr 15
Full

Hourly Weather History & Observations

Time (CDT) Temp. Windchill Dew Point Humidity Pressure Visibility Wind Dir Wind Speed Gust Speed Precip Events Conditions
12:13 AM 1.4 °F -13.5 °F -5.8 °F 72% 30.40 in 10.0 mi NNW 9.2 mph - N/A   Clear
12:33 AM 1.4 °F -13.5 °F -5.8 °F 72% 30.41 in 10.0 mi NNW 9.2 mph - N/A   Clear
12:53 AM 1.4 °F -13.5 °F -5.8 °F 72% 30.42 in 10.0 mi NNW 9.2 mph - N/A   Clear
1:13 AM 1.4 °F -12.5 °F -5.8 °F 72% 30.42 in 10.0 mi NNW 8.1 mph - N/A   Clear
1:33 AM 1.4 °F -11.3 °F -7.6 °F 66% 30.43 in 10.0 mi NNW 6.9 mph - N/A   Clear
1:53 AM -0.4 °F -14.7 °F -7.6 °F 72% 30.43 in 10.0 mi North 8.1 mph - N/A   Clear
2:13 AM 1.4 °F -13.5 °F -7.6 °F 66% 30.44 in 10.0 mi NNW 9.2 mph - N/A   Clear
2:33 AM -0.4 °F -12.0 °F -7.6 °F 72% 30.44 in 10.0 mi NNW 5.8 mph - N/A   Clear
2:53 AM -0.4 °F -12.0 °F -7.6 °F 72% 30.44 in 10.0 mi NNW 5.8 mph - N/A   Clear
3:13 AM -0.4 °F -12.0 °F -7.6 °F 72% 30.44 in 10.0 mi NW 5.8 mph - N/A   Clear
3:33 AM -2.2 °F -14.2 °F -9.4 °F 71% 30.44 in 10.0 mi NW 5.8 mph - N/A   Clear
3:53 AM -2.2 °F -14.2 °F -9.4 °F 71% 30.44 in 10.0 mi WNW 5.8 mph - N/A   Clear
4:13 AM -2.2 °F -15.6 °F -9.4 °F 71% 30.44 in 10.0 mi NW 6.9 mph - N/A   Clear
4:33 AM -2.2 °F -16.8 °F -9.4 °F 71% 30.44 in 10.0 mi NW 8.1 mph - N/A   Clear
4:53 AM -2.2 °F -16.8 °F -9.4 °F 71% 30.44 in 10.0 mi NW 8.1 mph - N/A   Clear
5:13 AM -2.2 °F -14.2 °F -9.4 °F 71% 30.44 in 10.0 mi NW 5.8 mph - N/A   Clear
5:33 AM -2.2 °F -15.6 °F -9.4 °F 71% 30.44 in 10.0 mi NNW 6.9 mph - N/A   Clear
5:53 AM -0.4 °F -14.7 °F -9.4 °F 66% 30.45 in 10.0 mi NNW 8.1 mph - N/A   Clear
6:13 AM -0.4 °F -14.7 °F -9.4 °F 66% 30.45 in 10.0 mi NW 8.1 mph - N/A   Clear
6:34 AM -2.2 °F -16.8 °F -9.4 °F 71% 30.46 in 10.0 mi NW 8.1 mph - N/A   Clear
6:53 AM -0.4 °F -15.7 °F -9.4 °F 66% 30.46 in 10.0 mi NW 9.2 mph - N/A   Clear
7:13 AM -2.2 °F -18.0 °F -9.4 °F 71% 30.47 in 10.0 mi NW 9.2 mph - N/A   Clear
7:33 AM -0.4 °F -14.7 °F -9.4 °F 66% 30.47 in 10.0 mi NNW 8.1 mph - N/A   Clear
7:53 AM -0.4 °F -15.7 °F -9.4 °F 66% 30.48 in 10.0 mi NNW 9.2 mph - N/A   Clear
8:13 AM -0.4 °F -15.7 °F -9.4 °F 66% 30.48 in 10.0 mi NNW 9.2 mph - N/A   Clear
8:33 AM -0.4 °F -15.7 °F -7.6 °F 72% 30.49 in 10.0 mi NNW 9.2 mph - N/A   Clear
8:53 AM 1.4 °F -14.5 °F -7.6 °F 66% 30.49 in 10.0 mi NNW 10.4 mph - N/A   Clear
9:13 AM 1.4 °F -13.5 °F -7.6 °F 66% 30.50 in 10.0 mi NW 9.2 mph - N/A   Clear
9:33 AM 1.4 °F -16.1 °F -5.8 °F 72% 30.51 in 10.0 mi NNW 12.7 mph - N/A   Clear
9:53 AM 3.2 °F -12.2 °F -5.8 °F 66% 30.51 in 10.0 mi NNW 10.4 mph - N/A   Clear
10:13 AM 3.2 °F -12.2 °F -5.8 °F 66% 30.52 in 10.0 mi NW 10.4 mph - N/A   Clear
10:33 AM 5.0 °F -11.6 °F -5.8 °F 61% 30.52 in 10.0 mi NNW 12.7 mph - N/A   Clear
10:53 AM 6.8 °F -10.0 °F -4.0 °F 61% 30.52 in 10.0 mi NNW 13.8 mph - N/A   Clear
11:13 AM 6.8 °F -10.0 °F -4.0 °F 61% 30.52 in 10.0 mi NNW 13.8 mph - N/A   Clear
11:33 AM 6.8 °F -8.6 °F -2.2 °F 67% 30.53 in 10.0 mi NNW 11.5 mph - N/A   Clear
11:53 AM 6.8 °F -9.3 °F -2.2 °F 67% 30.53 in 10.0 mi NNW 12.7 mph - N/A   Clear
12:13 PM 8.6 °F -6.3 °F -2.2 °F 62% 30.54 in 10.0 mi NNW 11.5 mph - N/A   Clear
12:33 PM 8.6 °F -7.0 °F -2.2 °F 62% 30.54 in 10.0 mi NNW 12.7 mph 18.4 mph N/A   Clear
12:53 PM 8.6 °F -6.3 °F -0.4 °F 67% 30.54 in 10.0 mi NW 11.5 mph - N/A   Clear
1:13 PM 10.4 °F -5.4 °F -0.4 °F 62% 30.54 in 10.0 mi NW 13.8 mph 18.4 mph N/A   Clear
1:33 PM 10.4 °F -5.4 °F -0.4 °F 62% 30.54 in 10.0 mi NW 13.8 mph 20.7 mph N/A   Clear
1:53 PM 10.4 °F -6.6 °F -0.4 °F 62% 30.53 in 10.0 mi NW 16.1 mph - N/A   Clear
2:13 PM 10.4 °F -6.6 °F -2.2 °F 57% 30.52 in 10.0 mi NW 16.1 mph - N/A   Clear
2:33 PM 10.4 °F -5.4 °F -2.2 °F 57% 30.52 in 10.0 mi NW 13.8 mph 20.7 mph N/A   Clear
2:53 PM 12.2 °F -3.1 °F -0.4 °F 57% 30.52 in 10.0 mi NW 13.8 mph 23.0 mph N/A   Clear
3:13 PM 12.2 °F -3.7 °F -0.4 °F 57% 30.51 in 10.0 mi NNW 15.0 mph - N/A   Clear
3:33 PM 12.2 °F -2.5 °F -0.4 °F 57% 30.51 in 10.0 mi NW 12.7 mph 23.0 mph N/A   Scattered Clouds
3:53 PM 12.2 °F -2.5 °F -0.4 °F 57% 30.51 in 10.0 mi NNW 12.7 mph - N/A   Scattered Clouds
4:13 PM 12.2 °F -2.5 °F -0.4 °F 57% 30.51 in 10.0 mi NNW 12.7 mph - N/A   Clear
4:33 PM 12.2 °F -2.5 °F -0.4 °F 57% 30.50 in 10.0 mi NNW 12.7 mph - N/A   Clear
4:53 PM 12.2 °F -0.2 °F -0.4 °F 57% 30.50 in 10.0 mi North 9.2 mph - N/A   Clear
5:13 PM 12.2 °F -1.0 °F 1.4 °F 62% 30.50 in 10.0 mi North 10.4 mph - N/A   Clear
5:33 PM 12.2 °F -1.8 °F -0.4 °F 57% 30.50 in 10.0 mi North 11.5 mph 16.1 mph N/A   Clear
5:53 PM 12.2 °F -0.2 °F -0.4 °F 57% 30.50 in 10.0 mi North 9.2 mph - N/A   Clear
6:13 PM 12.2 °F -1.8 °F -0.4 °F 57% 30.50 in 10.0 mi North 11.5 mph - N/A   Clear
6:33 PM 10.4 °F -3.3 °F -0.4 °F 62% 30.50 in 10.0 mi North 10.4 mph - N/A   Clear
6:53 PM 10.4 °F -3.3 °F -0.4 °F 62% 30.50 in 10.0 mi North 10.4 mph - N/A   Clear
7:13 PM 10.4 °F -1.5 °F -2.2 °F 57% 30.50 in 10.0 mi North 8.1 mph - N/A   Clear
7:33 PM 8.6 °F -1.3 °F -2.2 °F 62% 30.49 in 10.0 mi North 5.8 mph - N/A   Clear
7:53 PM 8.6 °F 2.0 °F -2.2 °F 62% 30.49 in 10.0 mi North 3.5 mph - N/A   Clear
8:13 PM 6.8 °F -2.0 °F -2.2 °F 67% 30.49 in 10.0 mi North 4.6 mph - N/A   Clear
8:33 PM 6.8 °F - -2.2 °F 67% 30.49 in 10.0 mi Calm Calm - N/A   Clear
8:53 PM 6.8 °F - -2.2 °F 67% 30.50 in 10.0 mi Calm Calm - N/A   Clear
9:13 PM 5.0 °F -2.1 °F -2.2 °F 72% 30.50 in 10.0 mi North 3.5 mph - N/A   Clear
9:33 PM 5.0 °F -2.1 °F -2.2 °F 72% 30.50 in 10.0 mi North 3.5 mph - N/A   Clear
9:53 PM 5.0 °F - -2.2 °F 72% 30.50 in 10.0 mi Calm Calm - N/A   Clear
10:13 PM 5.0 °F - -2.2 °F 72% 30.50 in 10.0 mi Calm Calm - N/A   Clear
10:33 PM 5.0 °F - -4.0 °F 66% 30.50 in 10.0 mi Calm Calm - N/A   Clear
10:53 PM 3.2 °F - -4.0 °F 72% 30.50 in 10.0 mi Calm Calm - N/A   Clear
11:13 PM 3.2 °F - -4.0 °F 72% 30.50 in 10.0 mi Calm Calm - N/A   Clear
11:34 PM -0.4 °F -10.4 °F -5.8 °F 78% 30.50 in 10.0 mi SW 4.6 mph - N/A   Clear
11:53 PM -0.4 °F -10.4 °F -5.8 °F 78% 30.50 in 10.0 mi SW 4.6 mph - N/A   Clear